DLH7CH EDDN-EDLW

Flight info

Callsign DLH7CH
Flight time 0h 40m
Altitude 24000
Route SULUS1C SULUS L604 MASEK Z52 ARPEG Z850 ADEMI ADEMI2A
Aircraft A321/M-SDE3FGHIRWY/LB1

Departure

Time 2026-04-29 12:04
Airport Nuremberg Airport (EDDN)

Arrival

Time 2026-04-29 12:44
Airport Dortmund Airport (EDLW)
Time Latitude Longitude Altitude Speed Heading
2026-04-29 11:27 49.49517 11.07791 1024 ft 0 kts 188°
2026-04-29 11:55 49.49534 11.07795 1026 ft 4 kts 191°
2026-04-29 11:55 49.49560 11.07805 1029 ft 4 kts 198°
2026-04-29 11:56 49.49585 11.07819 1030 ft 4 kts 206°
2026-04-29 11:56 49.49596 11.07828 1030 ft 1 kts 207°
2026-04-29 11:56 49.49597 11.07828 1030 ft 0 kts 207°
2026-04-29 11:57 49.49596 11.07828 1030 ft 0 kts 207°
2026-04-29 11:58 49.49587 11.07817 1030 ft 3 kts 228°
2026-04-29 11:59 49.49599 11.07785 1030 ft 4 kts 329°
2026-04-29 11:59 49.49654 11.07769 1031 ft 12 kts 343°
2026-04-29 11:59 49.49692 11.07661 1032 ft 12 kts 280°
2026-04-29 11:59 49.49707 11.07517 1030 ft 17 kts 278°
2026-04-29 12:00 49.49727 11.07307 1027 ft 21 kts 279°
2026-04-29 12:00 49.49751 11.07065 1023 ft 25 kts 277°
2026-04-29 12:00 49.49775 11.06812 1019 ft 21 kts 278°
2026-04-29 12:00 49.49801 11.06574 1017 ft 23 kts 282°
2026-04-29 12:01 49.49814 11.06429 1019 ft 9 kts 277°
2026-04-29 12:01 49.49823 11.06330 1020 ft 12 kts 278°
2026-04-29 12:01 49.49834 11.06222 1019 ft 19 kts 279°
2026-04-29 12:01 49.49890 11.05983 1022 ft 17 kts 326°
2026-04-29 12:02 49.49941 11.05948 1020 ft 0 kts 338°
2026-04-29 12:03 49.49961 11.05937 1020 ft 11 kts 342°
2026-04-29 12:03 49.50042 11.06023 1019 ft 17 kts 95°
2026-04-29 12:03 49.50035 11.06120 1021 ft 0 kts 98°
2026-04-29 12:04 49.50030 11.06167 1021 ft 27 kts 98°
2026-04-29 12:04 49.49964 11.06860 1018 ft 101 kts 98°
2026-04-29 12:04 49.49834 11.08242 1046 ft 156 kts 90°
2026-04-29 12:04 49.49662 11.09906 1710 ft 158 kts 95°
2026-04-29 12:05 49.49494 11.11598 2453 ft 162 kts 95°
2026-04-29 12:05 49.49353 11.13208 2651 ft 142 kts 95°
2026-04-29 12:05 49.49240 11.14575 2690 ft 125 kts 94°
2026-04-29 12:05 49.49141 11.15920 2640 ft 130 kts 89°
2026-04-29 12:06 49.49145 11.17383 2810 ft 144 kts 82°
2026-04-29 12:06 49.49474 11.18930 3183 ft 162 kts 63°
2026-04-29 12:06 49.50086 11.20530 3494 ft 184 kts 57°
2026-04-29 12:06 49.51097 11.21929 3793 ft 208 kts 35°
2026-04-29 12:07 49.52353 11.23270 3949 ft 236 kts 41°
2026-04-29 12:07 49.53668 11.25072 4051 ft 263 kts 44°
2026-04-29 12:07 49.55024 11.26811 4483 ft 255 kts 38°
2026-04-29 12:07 49.56446 11.28422 4746 ft 253 kts 39°
2026-04-29 12:08 49.57957 11.29801 5405 ft 247 kts 25°
2026-04-29 12:08 49.59622 11.30359 5846 ft 255 kts
2026-04-29 12:08 49.61432 11.29994 6608 ft 271 kts 346°
2026-04-29 12:08 49.63162 11.28723 7329 ft 279 kts 335°
2026-04-29 12:09 49.64874 11.27279 8147 ft 281 kts 335°
2026-04-29 12:09 49.66596 11.25820 9043 ft 282 kts 334°
2026-04-29 12:09 49.68318 11.24361 9915 ft 282 kts 335°
2026-04-29 12:09 49.70051 11.22894 10611 ft 290 kts 333°
2026-04-29 12:10 49.71870 11.21364 10817 ft 313 kts 333°
2026-04-29 12:10 49.73852 11.19699 10971 ft 335 kts 334°
2026-04-29 12:10 49.75943 11.17940 11352 ft 347 kts 333°
2026-04-29 12:10 49.78071 11.16140 12024 ft 350 kts 333°
2026-04-29 12:11 49.80210 11.14322 12700 ft 352 kts 333°
2026-04-29 12:11 49.82375 11.12476 13369 ft 356 kts 332°
2026-04-29 12:11 49.84412 11.10272 14022 ft 361 kts 321°
2026-04-29 12:11 49.86197 11.07515 14598 ft 365 kts 315°
2026-04-29 12:12 49.87961 11.04651 15147 ft 368 kts 315°
2026-04-29 12:12 49.89745 11.01765 15734 ft 372 kts 315°
2026-04-29 12:12 49.91543 10.98862 16321 ft 375 kts 316°
2026-04-29 12:12 49.93362 10.95925 16902 ft 378 kts 316°
2026-04-29 12:13 49.95194 10.92965 17439 ft 382 kts 316°
2026-04-29 12:13 49.97045 10.89968 17952 ft 386 kts 316°
2026-04-29 12:13 49.98889 10.86973 18474 ft 390 kts 316°
2026-04-29 12:13 50.00769 10.83909 18957 ft 393 kts 316°
2026-04-29 12:14 50.02663 10.80821 19454 ft 395 kts 316°
2026-04-29 12:14 50.04564 10.77718 19970 ft 397 kts 317°
2026-04-29 12:14 50.06475 10.74599 20474 ft 400 kts 317°
2026-04-29 12:14 50.08402 10.71460 20980 ft 402 kts 317°
2026-04-29 12:15 50.10340 10.68298 21467 ft 404 kts 317°
2026-04-29 12:15 50.12283 10.65119 21972 ft 406 kts 317°
2026-04-29 12:15 50.14234 10.61917 22469 ft 409 kts 316°
2026-04-29 12:15 50.16193 10.58696 22927 ft 411 kts 317°
2026-04-29 12:16 50.18173 10.55441 23361 ft 415 kts 317°
2026-04-29 12:16 50.20167 10.52155 23784 ft 418 kts 317°
2026-04-29 12:16 50.22174 10.48843 24174 ft 421 kts 318°
2026-04-29 12:16 50.24197 10.45529 24287 ft 424 kts 318°
2026-04-29 12:17 50.26263 10.42202 24312 ft 428 kts 319°
2026-04-29 12:17 50.28353 10.38863 24313 ft 430 kts 319°
2026-04-29 12:17 50.30449 10.35518 24309 ft 430 kts 319°
2026-04-29 12:17 50.32540 10.32168 24308 ft 430 kts 319°
2026-04-29 12:18 50.34622 10.28818 24319 ft 430 kts 318°
2026-04-29 12:18 50.36632 10.25421 24316 ft 431 kts 316°
2026-04-29 12:18 50.38605 10.21870 24315 ft 431 kts 316°
2026-04-29 12:18 50.40605 10.18361 24307 ft 432 kts 317°
2026-04-29 12:19 50.42655 10.14913 24324 ft 432 kts 318°
2026-04-29 12:19 50.44735 10.11510 24324 ft 432 kts 319°
2026-04-29 12:19 50.46811 10.08085 24320 ft 433 kts 318°
2026-04-29 12:19 50.48867 10.04631 24316 ft 433 kts 317°
2026-04-29 12:20 50.50876 10.01197 24324 ft 425 kts 317°
2026-04-29 12:20 50.52905 9.97710 24321 ft 439 kts 317°
2026-04-29 12:20 50.54982 9.94111 24331 ft 451 kts 316°
2026-04-29 12:20 50.57063 9.90326 24335 ft 463 kts 315°
2026-04-29 12:21 50.59141 9.86388 24335 ft 472 kts 314°
2026-04-29 12:21 50.61231 9.82335 24336 ft 479 kts 313°
2026-04-29 12:21 50.63306 9.78281 24324 ft 485 kts 313°
2026-04-29 12:21 50.65446 9.74118 24338 ft 491 kts 313°
2026-04-29 12:22 50.67613 9.69934 24598 ft 490 kts 314°
2026-04-29 12:22 50.69750 9.65797 25093 ft 480 kts 314°
2026-04-29 12:22 50.71638 9.61630 25580 ft 460 kts 306°
2026-04-29 12:22 50.73074 9.57115 25765 ft 463 kts 296°
2026-04-29 12:23 50.74000 9.52228 25762 ft 467 kts 287°
2026-04-29 12:23 50.74675 9.47207 25762 ft 467 kts 287°
2026-04-29 12:23 50.75342 9.42179 25762 ft 467 kts 287°
2026-04-29 12:23 50.76011 9.37154 25737 ft 467 kts 287°
2026-04-29 12:24 50.76684 9.32137 25737 ft 467 kts 287°
2026-04-29 12:24 50.77361 9.27113 25717 ft 467 kts 287°
2026-04-29 12:24 50.78035 9.22120 25205 ft 462 kts 287°
2026-04-29 12:24 50.78699 9.17180 24612 ft 458 kts 286°
2026-04-29 12:25 50.79360 9.12256 24374 ft 456 kts 286°
2026-04-29 12:25 50.80006 9.07420 24315 ft 455 kts 286°
2026-04-29 12:25 50.81302 8.97626 24342 ft 455 kts 286°
2026-04-29 12:26 50.81950 8.92722 24344 ft 455 kts 287°
2026-04-29 12:26 50.82849 8.87951 24342 ft 450 kts 296°
2026-04-29 12:26 50.84171 8.83496 24339 ft 445 kts 303°
2026-04-29 12:26 50.85638 8.79159 24340 ft 445 kts 303°
2026-04-29 12:27 50.87089 8.74831 24336 ft 445 kts 302°
2026-04-29 12:27 50.88535 8.70486 24341 ft 445 kts 302°
2026-04-29 12:27 50.89968 8.66154 23805 ft 444 kts 302°
2026-04-29 12:27 50.91406 8.61811 22909 ft 443 kts 302°
2026-04-29 12:28 50.92822 8.57518 22309 ft 435 kts 302°
2026-04-29 12:28 50.94194 8.53350 21682 ft 428 kts 302°
2026-04-29 12:28 50.95559 8.49199 21048 ft 421 kts 302°
2026-04-29 12:28 50.96903 8.45107 20475 ft 415 kts 301°
2026-04-29 12:29 50.98224 8.41082 19897 ft 409 kts 301°
2026-04-29 12:29 50.99537 8.37093 19337 ft 404 kts 302°
2026-04-29 12:29 51.01046 8.33388 18823 ft 394 kts 312°
2026-04-29 12:29 51.02888 8.30249 18256 ft 384 kts 322°
2026-04-29 12:30 51.04987 8.27722 17755 ft 373 kts 332°
2026-04-29 12:30 51.07213 8.25709 17274 ft 364 kts 334°
2026-04-29 12:30 51.09413 8.23759 16769 ft 361 kts 334°
2026-04-29 12:30 51.11598 8.21813 16281 ft 359 kts 334°
2026-04-29 12:31 51.13774 8.19870 15775 ft 357 kts 334°
2026-04-29 12:31 51.15930 8.17941 15271 ft 354 kts 334°
2026-04-29 12:31 51.18073 8.16018 14750 ft 352 kts 334°
2026-04-29 12:31 51.20174 8.14130 14246 ft 350 kts 334°
2026-04-29 12:32 51.22291 8.12234 13671 ft 348 kts 334°
2026-04-29 12:32 51.24403 8.10346 13138 ft 346 kts 334°
2026-04-29 12:32 51.26499 8.08471 12615 ft 345 kts 334°
2026-04-29 12:32 51.28588 8.06597 12083 ft 343 kts 334°
2026-04-29 12:33 51.30658 8.04737 11542 ft 339 kts 334°
2026-04-29 12:33 51.32699 8.02900 11179 ft 331 kts 334°
2026-04-29 12:33 51.34656 8.01132 11069 ft 315 kts 334°
2026-04-29 12:33 51.36515 7.99448 10938 ft 300 kts 334°
2026-04-29 12:34 51.38308 7.97829 10701 ft 292 kts 334°
2026-04-29 12:34 51.40060 7.96256 10450 ft 288 kts 334°
2026-04-29 12:34 51.41802 7.94689 10254 ft 286 kts 335°
2026-04-29 12:34 51.43532 7.93130 10116 ft 286 kts 334°
2026-04-29 12:35 51.45268 7.91566 9983 ft 285 kts 335°
2026-04-29 12:35 51.46905 7.89816 9846 ft 289 kts 322°
2026-04-29 12:35 51.48225 7.87355 9594 ft 295 kts 305°
2026-04-29 12:35 51.49055 7.84326 9120 ft 299 kts 288°
2026-04-29 12:36 51.49575 7.81082 8625 ft 301 kts 287°
2026-04-29 12:36 51.50105 7.77815 8169 ft 303 kts 287°
2026-04-29 12:36 51.50637 7.74563 7845 ft 299 kts 287°
2026-04-29 12:36 51.51166 7.71346 7388 ft 298 kts 287°
2026-04-29 12:37 51.51677 7.68127 6903 ft 298 kts 281°
2026-04-29 12:37 51.51708 7.64805 6407 ft 298 kts 260°
2026-04-29 12:37 51.51051 7.61697 5828 ft 293 kts 238°
2026-04-29 12:37 51.49805 7.59174 5332 ft 285 kts 218°
2026-04-29 12:38 51.48331 7.57076 4748 ft 282 kts 217°
2026-04-29 12:38 51.46865 7.54993 4206 ft 281 kts 218°
2026-04-29 12:38 51.45405 7.52915 3648 ft 281 kts 219°
2026-04-29 12:38 51.43966 7.50859 3357 ft 270 kts 220°
2026-04-29 12:39 51.42611 7.48916 3205 ft 253 kts 219°
2026-04-29 12:39 51.41332 7.47084 3102 ft 245 kts 219°
2026-04-29 12:39 51.40134 7.45160 3044 ft 245 kts 237°
2026-04-29 12:39 51.39687 7.42581 2990 ft 243 kts 278°
2026-04-29 12:40 51.40273 7.40135 2944 ft 233 kts 316°
2026-04-29 12:40 51.41512 7.38763 2896 ft 209 kts 349°
2026-04-29 12:40 51.42879 7.38656 2850 ft 195 kts 19°
2026-04-29 12:40 51.44047 7.39621 2809 ft 188 kts 45°
2026-04-29 12:41 51.44807 7.41331 2782 ft 189 kts 62°
2026-04-29 12:41 51.45452 7.43163 2735 ft 188 kts 62°
2026-04-29 12:41 51.46097 7.44987 2601 ft 188 kts 62°
2026-04-29 12:41 51.46746 7.46818 2395 ft 189 kts 62°
2026-04-29 12:42 51.47379 7.48607 2165 ft 177 kts 61°
2026-04-29 12:42 51.47956 7.50235 1949 ft 156 kts 62°
2026-04-29 12:42 51.48457 7.51651 1748 ft 139 kts 61°
2026-04-29 12:42 51.48923 7.52968 1565 ft 134 kts 62°
2026-04-29 12:43 51.49380 7.54262 1376 ft 132 kts 61°
2026-04-29 12:43 51.49830 7.55537 1188 ft 133 kts 61°
2026-04-29 12:43 51.50276 7.56802 1009 ft 129 kts 61°
2026-04-29 12:43 51.50725 7.58076 831 ft 131 kts 60°
2026-04-29 12:44 51.51177 7.59341 632 ft 130 kts 60°
2026-04-29 12:44 51.51616 7.60593 459 ft 130 kts 60°
2026-04-29 12:44 51.52034 7.61762 408 ft 111 kts 60°
2026-04-29 12:44 51.52321 7.62546 404 ft 31 kts 59°
2026-04-29 12:45 51.52338 7.62606 403 ft 1 kts 82°
2026-04-29 12:45 51.52335 7.62653 403 ft 3 kts 106°
2026-04-29 12:45 51.52304 7.62723 402 ft 16 kts 135°
2026-04-29 12:45 51.52287 7.62741 401 ft 0 kts 150°
2026-04-29 12:46 51.52280 7.62747 401 ft 3 kts 150°
2026-04-29 12:46 51.52251 7.62768 401 ft 6 kts 161°
2026-04-29 12:46 51.52206 7.62770 401 ft 7 kts 197°
2026-04-29 12:46 51.52171 7.62720 401 ft 4 kts 236°
2026-04-29 12:47 51.52171 7.62719 401 ft 0 kts 236°
2026-04-29 12:50 51.52163 7.62700 403 ft 7 kts 237°
2026-04-29 12:50 51.52146 7.62656 404 ft 5 kts 239°
2026-04-29 12:51 51.52104 7.62535 407 ft 19 kts 240°
2026-04-29 12:51 51.52020 7.62297 411 ft 27 kts 240°
2026-04-29 12:51 51.51928 7.62037 414 ft 27 kts 240°
2026-04-29 12:51 51.51840 7.61792 412 ft 23 kts 241°
2026-04-29 12:52 51.51765 7.61575 413 ft 21 kts 241°
2026-04-29 12:52 51.51744 7.61512 418 ft 0 kts 241°
2026-04-29 12:52 51.51718 7.61464 420 ft 9 kts 222°
2026-04-29 12:52 51.51669 7.61422 417 ft 7 kts 225°
2026-04-29 12:53 51.51665 7.61415 419 ft 1 kts 225°
2026-04-29 12:53 51.51635 7.61358 425 ft 12 kts 238°
2026-04-29 12:53 51.51624 7.61316 420 ft 9 kts 244°
2026-04-29 12:53 51.51594 7.61302 420 ft 1 kts 182°
2026-04-29 12:54 51.51587 7.61301 432 ft 0 kts 180°
2026-04-29 12:54 51.51583 7.61305 423 ft 1 kts 152°
2026-04-29 12:54 51.51583 7.61306 423 ft 0 kts 151°